Le nostre stazioni meteo in Italia

Pubblicità
Il mio iltempo24.it
Cagliari/Elmas, Italia (16560): Temperatura & dewpoint: 10.07.2018 20:00:00 - 16.07.2018 20:00:00 (CEST)Cagliari/Elmas, Italia (16560): velocità del vento: 10.07.2018 20:00:00 - 16.07.2018 20:00:00 (CEST)Cagliari/Elmas, Italia (16560): direzione del vento: 10.07.2018 20:00:00 - 16.07.2018 20:00:00 (CEST)Cagliari/Elmas, Italia (16560): reduced air pressure: 10.07.2018 20:00:00 - 16.07.2018 20:00:00 (CEST)Cagliari/Elmas, Italia (16560): visibility: 10.07.2018 20:00:00 - 16.07.2018 20:00:00 (CEST)Cagliari/Elmas, Italia (16560): precipitazioni: 10.07.2018 20:00:00 - 16.07.2018 20:00:00 (CEST)
Data & Tempo tt [°C] td [°C] ff [km/h] ff [kn] dd ppp [hPa] vv [km] rr [mm]
16.07.2018 20:00:00 30,7 12,6 26 14 O 1012,6 10 -
16.07.2018 19:00:00 32,0 17,0 18 10 O - 10 -
16.07.2018 18:00:00 - - - - - - - -
16.07.2018 17:00:00 - - - - - - - -
16.07.2018 16:00:00 29,0 23,0 37 20 SE - 10 -
16.07.2018 15:00:00 32,0 21,0 16 9 SSE - 10 -
16.07.2018 14:00:00 35,2 16,5 8 4 OSO 1013,6 10 -
16.07.2018 13:00:00 34,0 18,0 9 5 NNE - 10 -
16.07.2018 12:00:00 32,0 20,0 11 6 ONO - 10 -
16.07.2018 11:00:00 30,4 22,0 11 6 NE 1014,2 10 0,0
16.07.2018 10:00:00 27,0 23,0 13 7 NNE - 10 -
16.07.2018 09:00:00 26,0 24,0 9 5 S - 10 -
16.07.2018 08:00:00 25,9 24,2 13 7 S 1012,8 10 -
16.07.2018 07:00:00 26,0 24,0 13 7 E - 10 -
16.07.2018 06:00:00 25,0 24,0 5 3 ESE - 10 -
16.07.2018 05:00:00 25,6 24,0 8 4 ENE 1015,3 10 0,0
16.07.2018 04:00:00 26,0 24,0 11 6 OSO - 10 -
16.07.2018 03:00:00 25,0 23,0 11 6 SE - 10 -
16.07.2018 02:00:00 24,7 22,5 4 2 - 1013,9 10 -
16.07.2018 01:00:00 25,0 22,0 11 6 NO - 10 -
16.07.2018 00:00:00 26,0 21,0 11 6 NO - 10 -
15.07.2018 23:00:00 27,5 19,9 13 7 N 1014,8 10 0,0
15.07.2018 22:00:00 29,0 20,0 11 6 N - 10 -
15.07.2018 21:00:00 31,0 18,0 15 8 NO - 10 -
15.07.2018 20:00:00 33,4 16,0 18 10 N 1013,5 10 -
15.07.2018 19:00:00 36,0 15,0 21 11 N - 10 -
15.07.2018 18:00:00 36,0 13,0 24 13 N - 10 -
15.07.2018 17:00:00 36,5 17,6 22 12 NNO 1014,3 10 0,0
15.07.2018 16:00:00 37,0 16,0 22 12 NNO - 10 -
15.07.2018 15:00:00 36,0 19,0 18 10 N - 10 -
15.07.2018 14:00:00 35,5 19,5 16 9 NO 1014,7 10 -
15.07.2018 13:00:00 34,0 20,0 16 9 NNO - 10 -
15.07.2018 12:00:00 32,0 20,0 16 9 NO - 10 -
15.07.2018 11:00:00 30,8 20,7 16 9 NNO 1015,5 10 0,0
15.07.2018 10:00:00 28,0 21,0 21 11 NNO - 10 -
15.07.2018 09:00:00 26,0 21,0 16 9 NNO - 10 -
15.07.2018 08:00:00 24,9 21,7 9 5 NNO 1015,4 10 -
15.07.2018 07:00:00 24,0 22,0 15 8 NNO - 10 -
15.07.2018 06:00:00 24,0 22,0 15 8 N - 10 -
15.07.2018 05:00:00 25,0 21,8 16 9 NO 1014,6 10 0,0
15.07.2018 04:00:00 25,0 22,0 15 8 NO - 10 -
15.07.2018 03:00:00 25,0 22,0 13 7 NNO - 10 -
15.07.2018 02:00:00 25,5 22,2 13 7 NO 1014,7 10 -
15.07.2018 01:00:00 25,0 22,0 13 7 NNO - 10 -
15.07.2018 00:00:00 26,0 22,0 11 6 NNO - 10 -
14.07.2018 23:00:00 26,6 21,5 16 9 O 1014,7 10 0,0
14.07.2018 22:00:00 27,0 21,0 18 10 ONO - 10 -
14.07.2018 21:00:00 28,0 21,0 15 8 O - 10 -
14.07.2018 20:00:00 29,0 20,4 9 5 N 1013,8 10 -
14.07.2018 19:00:00 28,0 23,0 16 9 SE - 10 -
14.07.2018 18:00:00 29,0 23,0 22 12 SE - 10 -
14.07.2018 17:00:00 28,9 22,4 26 14 SSE 1014,2 10 0,0
14.07.2018 16:00:00 31,0 20,0 18 10 S - 10 -
14.07.2018 15:00:00 32,0 16,0 21 11 S - 10 -
14.07.2018 14:00:00 32,5 15,9 16 9 S 1015,0 10 -
14.07.2018 13:00:00 31,0 21,0 18 10 S - 10 -
14.07.2018 12:00:00 31,0 19,0 21 11 S - 10 -
14.07.2018 11:00:00 30,7 19,3 21 11 SSO 1015,4 10 0,0
14.07.2018 10:00:00 31,0 16,0 16 9 SSO - 10 -
14.07.2018 09:00:00 29,0 18,0 5 3 SSE - 10 -
14.07.2018 08:00:00 27,0 19,2 5 3 SE 1014,0 10 -
14.07.2018 07:00:00 27,0 19,0 13 7 S - 10 -
14.07.2018 06:00:00 27,0 17,0 11 6 S - 10 -
14.07.2018 05:00:00 27,4 17,4 15 8 S 1014,6 10 0,0
14.07.2018 04:00:00 28,0 16,0 11 6 S - 10 -
14.07.2018 03:00:00 27,0 18,0 24 13 S - 10 -
14.07.2018 02:00:00 27,1 19,4 9 5 S 1015,8 10 -
14.07.2018 01:00:00 27,0 19,0 9 5 S - 10 -
14.07.2018 00:00:00 27,0 21,0 9 5 S - 10 -
13.07.2018 23:00:00 27,1 21,0 16 9 SSO 1016,6 10 0,0
13.07.2018 22:00:00 27,0 22,0 18 10 S - 10 -
13.07.2018 21:00:00 28,0 21,0 22 12 SSO - 10 -
13.07.2018 20:00:00 28,5 21,0 21 11 S 1014,8 10 -
13.07.2018 19:00:00 29,0 21,0 26 14 SSO - 10 -
13.07.2018 18:00:00 30,0 19,0 22 12 SSE - 10 -
13.07.2018 17:00:00 31,5 17,9 16 9 S 1015,1 10 0,0
13.07.2018 16:00:00 31,0 18,0 16 9 SSE - 10 -
13.07.2018 15:00:00 33,0 16,0 16 9 SSE - 10 -
13.07.2018 14:00:00 33,5 16,6 13 7 S 1015,7 10 -
13.07.2018 13:00:00 32,0 17,0 16 9 S - 10 -
13.07.2018 12:00:00 31,0 16,0 11 6 S - 10 -
13.07.2018 11:00:00 30,6 16,1 11 6 SO 1016,0 10 0,0
13.07.2018 10:00:00 29,0 17,0 5 3 ONO - 10 -
13.07.2018 09:00:00 26,0 18,0 5 3 NNO - 10 -
13.07.2018 08:00:00 23,3 18,7 8 4 NO 1015,9 10 -
13.07.2018 07:00:00 22,0 19,0 9 5 NO - 10 -
13.07.2018 06:00:00 22,0 19,0 9 5 NO - 10 -
13.07.2018 05:00:00 22,8 17,9 8 4 NNE 1015,2 10 0,0
13.07.2018 04:00:00 23,0 18,0 9 5 NNE - 10 -
13.07.2018 03:00:00 26,0 19,0 9 5 SSO - 10 -
13.07.2018 02:00:00 26,0 20,0 11 6 SSO - 10 -
13.07.2018 01:00:00 26,0 20,0 13 7 S - 10 -
13.07.2018 00:00:00 27,0 21,0 18 10 SSO - 10 -
12.07.2018 23:00:00 26,7 19,6 18 10 S 1015,8 10 0,0
12.07.2018 22:00:00 26,0 22,0 15 8 S - 10 -
12.07.2018 21:00:00 27,0 22,0 18 10 S - 10 -
12.07.2018 20:00:00 27,6 20,9 13 7 S 1014,9 10 -
12.07.2018 19:00:00 30,0 18,0 16 9 S - 10 -
12.07.2018 18:00:00 31,0 18,0 15 8 S - 10 -
12.07.2018 17:00:00 31,2 16,1 21 11 SSE 1014,9 10 0,0
12.07.2018 16:00:00 32,0 16,0 22 12 SE - 10 -
12.07.2018 15:00:00 32,0 17,0 24 13 SE - 10 -
12.07.2018 14:00:00 31,3 17,2 21 11 SE 1015,0 10 -
12.07.2018 13:00:00 31,0 16,0 21 11 SE - 10 -
12.07.2018 12:00:00 31,0 14,0 15 8 SSE - 10 -
12.07.2018 11:00:00 30,3 15,3 8 4 OSO 1015,2 10 0,0
12.07.2018 10:00:00 28,0 16,0 8 4 NO - 10 -
12.07.2018 09:00:00 25,0 19,0 8 4 ONO - 10 -
12.07.2018 08:00:00 22,1 17,5 11 6 NNO 1014,8 10 -
12.07.2018 07:00:00 20,0 16,0 13 7 NNO - 10 -
12.07.2018 06:00:00 20,0 17,0 11 6 NO - 10 -
12.07.2018 05:00:00 21,2 17,7 11 6 NO 1014,9 10 0,0
12.07.2018 04:00:00 22,0 18,0 8 4 NO - 10 -
12.07.2018 03:00:00 23,0 17,0 16 9 NNO - 10 -
12.07.2018 02:00:00 23,6 16,0 15 8 NO 1015,3 10 -
12.07.2018 01:00:00 24,0 15,0 11 6 NO - 10 -
12.07.2018 00:00:00 25,0 15,0 9 5 NO - 10 -
11.07.2018 23:00:00 26,0 13,3 13 7 N 1014,6 10 0,0
11.07.2018 22:00:00 28,0 13,0 15 8 N - 10 -
11.07.2018 21:00:00 30,0 13,0 16 9 N - 10 -
11.07.2018 20:00:00 31,1 13,3 21 11 N 1013,4 10 -
11.07.2018 19:00:00 33,0 14,0 15 8 NO - 10 -
11.07.2018 18:00:00 34,0 15,0 15 8 NO - 10 -
11.07.2018 17:00:00 31,8 19,3 13 7 ESE 1013,0 10 0,0
11.07.2018 16:00:00 31,0 19,0 13 7 S - 10 -
11.07.2018 15:00:00 32,0 17,0 18 10 S - 10 -
11.07.2018 14:00:00 31,8 15,7 13 7 S 1013,7 10 -
11.07.2018 13:00:00 32,0 14,0 15 8 N - 10 -
11.07.2018 12:00:00 32,0 14,0 15 8 NO - 10 -
11.07.2018 11:00:00 30,4 16,2 13 7 ONO 1014,5 10 0,0
11.07.2018 10:00:00 27,0 17,0 13 7 ONO - 10 -
11.07.2018 09:00:00 24,0 19,0 9 5 NNO - 10 -
11.07.2018 08:00:00 22,3 18,2 11 6 ONO 1014,6 10 -
11.07.2018 07:00:00 21,0 19,0 11 6 NO - 10 -
11.07.2018 06:00:00 21,0 19,0 9 5 NO - 10 -
11.07.2018 05:00:00 21,6 19,3 9 5 NNO 1014,1 10 0,0
11.07.2018 04:00:00 23,0 20,0 16 9 NNO - 10 -
11.07.2018 03:00:00 23,0 20,0 18 10 N - 10 -
11.07.2018 02:00:00 22,7 18,0 9 5 NNO 1014,6 10 -
11.07.2018 01:00:00 24,0 18,0 15 8 N - 10 -
11.07.2018 00:00:00 25,0 18,0 16 9 N - 10 -
10.07.2018 23:00:00 25,1 17,9 13 7 N 1015,1 10 0,0
10.07.2018 22:00:00 27,0 16,0 18 10 NNO - 10 -
10.07.2018 21:00:00 27,0 20,0 4 2 - - 10 -
10.07.2018 20:00:00 27,0 20,9 11 6 SSE 1013,5 10 -

tt = Temperatura
td = dewpoint
ff = velocità del vento
dd = direzione del vento
ppp = reduced air pressure
vv = visibility
rr = precipitazioni

Stazioni seguenti

WeatherPro
AMSI
MeteoEarth